Weather History for Kendall, FL

Change the Weather History Date:

Tuesday, November 29, 2011

  Actual Average Record
Temperature  
Mean Temperature 68 °F -  
Max Temperature 77 °F 78 °F 82 °F (1990)
Min Temperature 60 °F 64 °F 51 °F (2002)
Cooling Degree Days 4    
Growing Degree Days 18 (Base 50)    
Moisture  
Dew Point 60 °F    
Average Humidity 79    
Maximum Humidity 100    
Minimum Humidity 47    
Precipitation  
Precipitation 0.00 in - - ()
Sea Level Pressure  
Sea Level Pressure 29.98 in    
Wind  
Wind Speed 10 mph (NNW)    
Max Wind Speed 15 mph    
Max Gust Speed -    
Visibility 10 miles    
Events Rain    
Averages and records for this station are not official NWS values.
T = Trace of Precipitation, MM = Missing Value Source: NWS Daily Summary

Daily Weather History Graph

Daily Weather History Graph

Search for Another Location

Airport:

Trip Planner

Search our weather history database for the weather conditions in past years. The results will help you decide how hot, cold, wet, or windy it might be!

Date:

Astronomy

Nov. 29, 2011 Rise Set
Actual Time 6:49 AM EST 5:30 PM EST
Civil Twilight 6:24 AM EST 5:55 PM EST
Nautical Twilight 5:56 AM EST 6:23 PM EST
Astronomical Twilight 5:28 AM EST 6:51 PM EST
Moon 10:44 AM EST (11/29) 10:09 PM EST (11/29)
Length of Visible Light 11h 30m
Length of Day
10h 41m
Waxing Crescent, 24% of the Moon is Illuminated
Nov 29
Waxing Crescent
Dec 2
First Quarter
Dec 10
Full
Dec 17
Last Quarter
Dec 24
New

Hourly Weather History & Observations

Time (EST) Temp. Dew Point Humidity Pressure Visibility Wind Dir Wind Speed Gust Speed Precip Events Conditions
12:53 AM 66.9 °F 64.9 °F 93% 29.94 in 10.0 mi NNW 12.7 mph - 0.00 in   Overcast
1:11 AM 66.2 °F 64.4 °F 94% 29.94 in 10.0 mi North 8.1 mph - 0.00 in Rain Light Rain
1:25 AM 66.2 °F 64.4 °F 94% 29.95 in 7.0 mi NW 9.2 mph - 0.00 in Rain Light Rain
1:50 AM 66.2 °F 64.4 °F 94% 29.95 in 7.0 mi NNW 11.5 mph - 0.00 in Rain Light Rain
1:53 AM 66.0 °F 64.0 °F 93% 29.95 in 8.0 mi NNW 13.8 mph - 0.00 in Rain Light Rain
2:24 AM 64.4 °F 64.4 °F 100% 29.94 in 10.0 mi NNW 11.5 mph - 0.00 in Rain Light Rain
2:53 AM 64.9 °F 63.0 °F 93% 29.94 in 10.0 mi NNW 12.7 mph - 0.00 in   Overcast
3:09 AM 64.4 °F 62.6 °F 94% 29.94 in 10.0 mi NNW 12.7 mph - N/A   Mostly Cloudy
3:22 AM 64.4 °F 62.6 °F 94% 29.95 in 10.0 mi NNW 15.0 mph - N/A   Mostly Cloudy
3:47 AM 64.4 °F 62.6 °F 94% 29.96 in 10.0 mi NNW 10.4 mph - N/A   Overcast
3:53 AM 64.9 °F 62.1 °F 90% 29.96 in 10.0 mi NNW 8.1 mph - N/A   Overcast
4:53 AM 64.0 °F 62.1 °F 93% 29.96 in 10.0 mi NNW 10.4 mph - 0.00 in   Overcast
5:35 AM 64.4 °F 62.6 °F 94% 29.97 in 10.0 mi North 8.1 mph - N/A   Overcast
5:53 AM 64.0 °F 62.1 °F 93% 29.96 in 10.0 mi North 8.1 mph - N/A   Overcast
6:53 AM 64.9 °F 61.0 °F 87% 29.99 in 10.0 mi North 5.8 mph - N/A   Overcast
7:53 AM 66.0 °F 61.0 °F 84% 30.00 in 10.0 mi North 6.9 mph - N/A   Overcast
8:53 AM 66.9 °F 60.1 °F 79% 30.02 in 10.0 mi North 4.6 mph - N/A   Overcast
9:53 AM 69.1 °F 57.9 °F 68% 30.03 in 10.0 mi North 6.9 mph - N/A   Overcast
10:53 AM 70.0 °F 59.0 °F 68% 30.03 in 10.0 mi North 6.9 mph - N/A   Overcast
11:53 AM 73.0 °F 57.9 °F 59% 30.01 in 10.0 mi NW 9.2 mph - N/A   Overcast
12:53 PM 73.9 °F 57.9 °F 57% 29.98 in 10.0 mi NNW 3.5 mph - N/A   Mostly Cloudy
1:53 PM 77.0 °F 55.9 °F 48% 29.95 in 10.0 mi WNW 8.1 mph - N/A   Clear
2:53 PM 77.0 °F 55.4 °F 47% 29.94 in 10.0 mi NW 6.9 mph - N/A   Clear
3:53 PM 77.0 °F 57.0 °F 50% 29.94 in 10.0 mi NW 11.5 mph - N/A   Clear
4:53 PM 73.9 °F 55.9 °F 53% 29.95 in 10.0 mi NW 10.4 mph - N/A   Clear
5:53 PM 66.0 °F 57.0 °F 73% 29.96 in 10.0 mi WNW 6.9 mph - N/A   Clear
6:53 PM 66.0 °F 57.9 °F 75% 29.99 in 10.0 mi NW 9.2 mph - N/A   Clear
7:53 PM 64.9 °F 55.9 °F 73% 30.01 in 10.0 mi WNW 9.2 mph - N/A   Clear
8:53 PM 60.1 °F 55.0 °F 83% 30.02 in 10.0 mi WNW 5.8 mph - N/A   Clear
9:53 PM 60.1 °F 55.0 °F 83% 30.04 in 10.0 mi NW 6.9 mph - N/A   Clear
10:53 PM 62.1 °F 53.1 °F 72% 30.04 in 10.0 mi NNW 8.1 mph - N/A   Clear
11:53 PM 61.0 °F 52.0 °F 72% 30.04 in 10.0 mi NNW 8.1 mph - N/A   Clear